Location: ??
(36.7391°N, 127.5151°E)
Time: 11:11:39
(UTC+00:00)

Okean 2 Rocket - Pass Details

Date: 07 June 2020
Orbit: 616 x 642 km, 82.5° (Epoch: 14 July)

Event Time Altitude Azimuth Distance (km) Brightness Sun altitude
Rises 11:11:15 0° 357° (N) 2,900 7.1 -5.0°
Reaches altitude 10° 11:13:31 10° 1° (N) 1,988 6.2 -5.4°
Maximum altitude 11:17:52 61° 81° (E) 703 3.2 -6.1°
Drops below altitude 10° 11:22:10 10° 162° (SSE) 1,970 5.2 -6.8°
Enters shadow 11:24:03 - 166° (SSE) 2,729 5.9 -7.1°
